| time (UTC) | temp F | wind direction | speed MPH | gust MPH | rain 1hr in | rain 24hr in | rain mn in | humidity % | barometer mb |
| 20260506175510 | 34 | 359 | 2.0 | 5.0 | 0.09 | 0.44 | 0.23 | 92 | 1021.4 |
| 20260506175009 | 34 | 359 | 2.0 | 4.0 | 0.09 | 0.43 | 0.22 | 93 | 1021.3 |
| 20260506174511 | 34 | 14 | 0.0 | 5.0 | 0.08 | 0.42 | 0.21 | 94 | 1021.3 |
| 20260506174010 | 34 | 14 | 2.0 | 5.0 | 0.08 | 0.41 | 0.20 | 94 | 1021.3 |
| 20260506173508 | 34 | 14 | 1.0 | 3.0 | 0.08 | 0.40 | 0.19 | 95 | 1021.4 |
| 20260506173010 | 33 | 4 | 0.0 | 4.0 | 0.07 | 0.39 | 0.18 | 95 | 1021.3 |
| 20260506172510 | 33 | 4 | 1.0 | 5.0 | 0.08 | 0.39 | 0.18 | 95 | 1021.3 |
| 20260506172007 | 32 | 4 | 2.0 | 5.0 | 0.07 | 0.38 | 0.17 | 95 | 1021.3 |
| 20260506171515 | 32 | 5 | 2.0 | 5.0 | 0.07 | 0.37 | 0.16 | 95 | 1021.3 |
| 20260506171014 | 32 | 5 | 3.0 | 5.0 | 0.06 | 0.36 | 0.15 | 95 | 1021.3 |
| 20260506170515 | 32 | 5 | 1.0 | 5.0 | 0.07 | 0.36 | 0.15 | 95 | 1021.3 |
| 20260506170012 | 32 | 5 | 3.0 | 5.0 | 0.06 | 0.35 | 0.14 | 95 | 1021.3 |
| 20260506165513 | 32 | 4 | 2.0 | 5.0 | 0.06 | 0.36 | 0.14 | 95 | 1021.1 |
| 20260506165011 | 32 | 4 | 2.0 | 6.0 | 0.06 | 0.35 | 0.13 | 95 | 1021.1 |
| 20260506164514 | 32 | 4 | 2.0 | 6.0 | 0.06 | 0.35 | 0.13 | 95 | 1021.0 |
| 20260506164018 | 32 | 4 | 2.0 | 7.0 | 0.06 | 0.34 | 0.12 | 95 | 1020.9 |
| 20260506163512 | 32 | 6 | 2.0 | 7.0 | 0.05 | 0.33 | 0.11 | 95 | 1020.7 |
| 20260506163014 | 31 | 6 | 3.0 | 9.0 | 0.06 | 0.33 | 0.11 | 95 | 1020.6 |
| 20260506162512 | 31 | 6 | 3.0 | 9.0 | 0.05 | 0.32 | 0.10 | 95 | 1020.5 |
| 20260506162016 | 31 | 12 | 2.0 | 8.0 | 0.05 | 0.32 | 0.10 | 95 | 1020.6 |
| 20260506161514 | 31 | 11 | 4.0 | 8.0 | 0.05 | 0.31 | 0.09 | 95 | 1020.6 |
| 20260506161013 | 31 | 10 | 4.0 | 11.0 | 0.05 | 0.31 | 0.09 | 95 | 1020.5 |
| 20260506160512 | 31 | 11 | 5.0 | 11.0 | 0.05 | 0.30 | 0.08 | 95 | 1020.4 |
| 20260506160017 | 31 | 1 | 3.0 | 10.0 | 0.05 | 0.30 | 0.08 | 95 | 1020.3 |
| 20260506155520 | 32 | 358 | 3.0 | 10.0 | 0.05 | 0.31 | 0.08 | 95 | 1020.4 |
| 20260506155016 | 32 | 348 | 3.0 | 8.0 | 0.04 | 0.30 | 0.07 | 95 | 1020.4 |
| 20260506154517 | 32 | 347 | 2.0 | 8.0 | 0.05 | 0.30 | 0.07 | 95 | 1020.3 |
| 20260506154017 | 32 | 349 | 1.0 | 6.0 | 0.04 | 0.28 | 0.06 | 95 | 1020.3 |
| 20260506153515 | 32 | 348 | 3.0 | 6.0 | 0.04 | 0.28 | 0.06 | 95 | 1020.1 |
| 20260506153020 | 32 | 349 | 3.0 | 6.0 | 0.03 | 0.28 | 0.05 | 95 | 1020.0 |
| 20260506152518 | 32 | 352 | 2.0 | 7.0 | 0.03 | 0.28 | 0.05 | 96 | 1020.1 |
| 20260506152021 | 32 | 352 | 3.0 | 7.0 | 0.03 | 0.27 | 0.04 | 96 | 1020.1 |
| 20260506151519 | 32 | 352 | 3.0 | 8.0 | 0.03 | 0.27 | 0.04 | 96 | 1019.9 |
| 20260506151017 | 32 | 353 | 3.0 | 8.0 | 0.03 | 0.27 | 0.04 | 96 | 1019.8 |
| 20260506150517 | 32 | 359 | 2.0 | 7.0 | 0.02 | 0.26 | 0.03 | 96 | 1019.7 |
| 20260506150018 | 32 | 359 | 3.0 | 7.0 | 0.02 | 0.26 | 0.03 | 96 | 1019.7 |
| 20260506145518 | 32 | 359 | 2.0 | 6.0 | 0.02 | 0.28 | 0.03 | 95 | 1019.7 |
| 20260506145017 | 32 | 359 | 3.0 | 6.0 | 0.02 | 0.28 | 0.03 | 95 | 1019.7 |
| 20260506144521 | 32 | 359 | 3.0 | 6.0 | 0.01 | 0.28 | 0.02 | 95 | 1019.7 |
| 20260506144022 | 32 | 359 | 3.0 | 6.0 | 0.01 | 0.28 | 0.02 | 95 | 1019.6 |
| 20260506143520 | 32 | 359 | 3.0 | 6.0 | 0.01 | 0.28 | 0.02 | 96 | 1019.6 |
| 20260506143028 | 32 | 359 | 3.0 | 6.0 | 0.01 | 0.28 | 0.02 | 95 | 1019.5 |
| 20260506142520 | 32 | 359 | 3.0 | 5.0 | 0.02 | 0.28 | 0.02 | 96 | 1019.5 |
| 20260506142024 | 32 | 359 | 1.0 | 3.0 | 0.01 | 0.27 | 0.01 | 96 | 1019.6 |
| 20260506141518 | 32 | 360 | 1.0 | 3.0 | 0.01 | 0.27 | 0.01 | 96 | 1019.6 |
| 20260506141021 | 32 | 360 | 0.0 | 3.0 | 0.01 | 0.27 | 0.01 | 96 | 1019.6 |
| 20260506140518 | 32 | 360 | 1.0 | 3.0 | 0.01 | 0.27 | 0.01 | 96 | 1019.6 |
| 20260506140023 | 32 | 360 | 0.0 | 1.0 | 0.01 | 0.27 | 0.01 | 96 | 1019.5 |
| 20260506135523 | 32 | 360 | 0.0 | 3.0 | 0.01 | 0.28 | 0.01 | 96 | 1019.6 |
| 20260506135021 | 32 | 360 | 0.0 | 3.0 | 0.01 | 0.28 | 0.01 | 96 | 1019.5 |
| 20260506134523 | 32 | 360 | 1.0 | 4.0 | 0.01 | 0.28 | 0.01 | 96 | 1019.4 |
| 20260506134021 | 32 | 1 | 0.0 | 4.0 | 0.01 | 0.28 | 0.01 | 96 | 1019.3 |
| 20260506133521 | 32 | 1 | 1.0 | 3.0 | 0.01 | 0.28 | 0.01 | 96 | 1019.3 |
| 20260506133028 | 32 | 1 | 0.0 | 1.0 | 0.01 | 0.28 | 0.01 | 95 | 1019.2 |
| 20260506132526 | 32 | 1 | 0.0 | 1.0 | 0.00 | 0.28 | 0.00 | 95 | 1019.2 |
| 20260506132027 | 32 | 20 | 0.0 | 0.0 | 0.00 | 0.28 | 0.00 | 95 | 1019.0 |
| 20260506131528 | 32 | 20 | 0.0 | 0.0 | 0.00 | 0.28 | 0.00 | 95 | 1018.9 |
| 20260506131025 | 32 | 20 | 0.0 | 0.0 | 0.00 | 0.28 | 0.00 | 95 | 1018.8 |
| 20260506130524 | 32 | 20 | 0.0 | 0.0 | 0.00 | 0.28 | 0.00 | 96 | 1018.7 |
| 20260506130010 | 32 | 20 | 0.0 | 0.0 | 0.00 | 0.28 | 0.00 | 96 | 1018.6 |
| 20260506125503 | 32 | 20 | 0.0 | 0.0 | 0.00 | 0.32 | 0.00 | 96 | 1018.5 |
| 20260506125005 | 32 | 20 | 0.0 | 0.0 | 0.00 | 0.32 | 0.00 | 96 | 1018.4 |
| 20260506124506 | 32 | 20 | 0.0 | 0.0 | 0.00 | 0.32 | 0.00 | 96 | 1018.2 |
| 20260506124006 | 32 | 20 | 0.0 | 0.0 | 0.00 | 0.32 | 0.00 | 96 | 1018.2 |
| 20260506123508 | 32 | 20 | 0.0 | 0.0 | 0.00 | 0.32 | 0.00 | 96 | 1018.4 |
| 20260506123006 | 32 | 20 | 0.0 | 0.0 | 0.00 | 0.32 | 0.00 | 96 | 1018.4 |
| 20260506122506 | 32 | 20 | 0.0 | 0.0 | 0.00 | 0.32 | 0.00 | 96 | 1018.5 |
| 20260506122005 | 31 | 20 | 0.0 | 0.0 | 0.00 | 0.32 | 0.00 | 96 | 1018.5 |
| 20260506121510 | 31 | 20 | 0.0 | 0.0 | 0.00 | 0.32 | 0.00 | 95 | 1018.3 |
| 20260506121008 | 31 | 20 | 0.0 | 0.0 | 0.00 | 0.32 | 0.00 | 95 | 1018.1 |
| 20260506120508 | 31 | 20 | 0.0 | 0.0 | 0.00 | 0.32 | 0.00 | 95 | 1018.2 |
| 20260506120008 | 31 | 20 | 0.0 | 0.0 | 0.00 | 0.32 | 0.00 | 95 | 1018.2 |
| 20260506115508 | 31 | 20 | 0.0 | 0.0 | 0.00 | 0.35 | 0.00 | 96 | 1018.2 |
| 20260506115006 | 31 | 20 | 0.0 | 0.0 | 0.00 | 0.35 | 0.00 | 96 | 1018.2 |
| 20260506114508 | 31 | 21 | 0.0 | 0.0 | 0.00 | 0.35 | 0.00 | 96 | 1018.2 |
| 20260506114010 | 31 | 22 | 0.0 | 0.0 | 0.00 | 0.35 | 0.00 | 95 | 1018.0 |
| 20260506113507 | 31 | 22 | 0.0 | 0.0 | 0.00 | 0.35 | 0.00 | 95 | 1017.9 |
| 20260506113021 | 31 | 22 | 0.0 | 0.0 | 0.00 | 0.35 | 0.00 | 95 | 1017.9 |
| 20260506112512 | 31 | 22 | 0.0 | 0.0 | 0.00 | 0.35 | 0.00 | 96 | 1017.9 |
| 20260506112013 | 31 | 22 | 0.0 | 0.0 | 0.00 | 0.35 | 0.00 | 96 | 1017.7 |
| 20260506111510 | 31 | 22 | 0.0 | 0.0 | 0.00 | 0.35 | 0.00 | 96 | 1017.7 |
| 20260506111013 | 32 | 22 | 0.0 | 0.0 | 0.00 | 0.35 | 0.00 | 96 | 1017.7 |
| 20260506110509 | 32 | 22 | 0.0 | 0.0 | 0.00 | 0.35 | 0.00 | 96 | 1017.7 |
| 20260506110013 | 32 | 22 | 0.0 | 0.0 | 0.00 | 0.35 | 0.00 | 96 | 1017.6 |
| 20260506105513 | 32 | 22 | 0.0 | 0.0 | 0.00 | 0.41 | 0.00 | 96 | 1017.5 |
| 20260506105013 | 32 | 22 | 0.0 | 0.0 | 0.00 | 0.41 | 0.00 | 96 | 1017.4 |
| 20260506104511 | 32 | 22 | 0.0 | 0.0 | 0.00 | 0.41 | 0.00 | 96 | 1017.5 |
| 20260506104011 | 32 | 22 | 0.0 | 0.0 | 0.00 | 0.41 | 0.00 | 96 | 1017.5 |
| 20260506103511 | 32 | 22 | 0.0 | 0.0 | 0.00 | 0.41 | 0.00 | 96 | 1017.5 |
| 20260506103011 | 32 | 22 | 0.0 | 0.0 | 0.00 | 0.41 | 0.00 | 96 | 1017.4 |
| 20260506102510 | 32 | 22 | 0.0 | 0.0 | 0.00 | 0.41 | 0.00 | 96 | 1017.5 |
| 20260506102010 | 32 | 22 | 0.0 | 0.0 | 0.00 | 0.41 | 0.00 | 96 | 1017.5 |
| 20260506101515 | 32 | 22 | 0.0 | 0.0 | 0.00 | 0.41 | 0.00 | 96 | 1017.6 |
| 20260506101014 | 32 | 22 | 0.0 | 0.0 | 0.00 | 0.41 | 0.00 | 96 | 1017.6 |
| 20260506100514 | 32 | 22 | 0.0 | 0.0 | 0.00 | 0.41 | 0.00 | 96 | 1017.7 |
| 20260506100013 | 31 | 22 | 0.0 | 0.0 | 0.00 | 0.41 | 0.00 | 96 | 1017.7 |
| 20260506095513 | 31 | 22 | 0.0 | 0.0 | 0.00 | 0.43 | 0.00 | 96 | 1017.7 |
| 20260506095015 | 31 | 22 | 0.0 | 0.0 | 0.00 | 0.43 | 0.00 | 95 | 1017.7 |
| 20260506094513 | 31 | 22 | 0.0 | 0.0 | 0.00 | 0.43 | 0.00 | 95 | 1017.6 |
| 20260506094011 | 31 | 22 | 0.0 | 0.0 | 0.00 | 0.43 | 0.00 | 95 | 1017.5 |
| 20260506093511 | 32 | 22 | 0.0 | 0.0 | 0.00 | 0.43 | 0.00 | 95 | 1017.5 |
| 20260506093017 | 32 | 22 | 0.0 | 0.0 | 0.00 | 0.43 | 0.00 | 95 | 1017.5 |
| 20260506092515 | 32 | 22 | 0.0 | 0.0 | 0.00 | 0.43 | 0.00 | 95 | 1017.2 |
| 20260506092015 | 32 | 22 | 0.0 | 0.0 | 0.00 | 0.43 | 0.00 | 95 | 1017.4 |
| 20260506091517 | 32 | 22 | 0.0 | 0.0 | 0.00 | 0.43 | 0.00 | 95 | 1017.4 |
| 20260506091013 | 32 | 22 | 0.0 | 0.0 | 0.00 | 0.43 | 0.00 | 95 | 1017.3 |
| 20260506090513 | 32 | 22 | 0.0 | 0.0 | 0.00 | 0.43 | 0.00 | 95 | 1017.2 |
| 20260506090019 | 32 | 22 | 0.0 | 0.0 | 0.00 | 0.43 | 0.00 | 95 | 1017.3 |
| 20260506085519 | 32 | 22 | 0.0 | 0.0 | 0.00 | 0.49 | 0.00 | 95 | 1017.3 |
| 20260506085015 | 32 | 22 | 0.0 | 0.0 | 0.00 | 0.49 | 0.00 | 95 | 1017.3 |
| 20260506084517 | 32 | 22 | 0.0 | 0.0 | 0.00 | 0.49 | 0.00 | 95 | 1017.3 |
| 20260506084015 | 32 | 22 | 0.0 | 0.0 | 0.00 | 0.49 | 0.00 | 95 | 1017.3 |
| 20260506083516 | 32 | 22 | 0.0 | 1.0 | 0.00 | 0.49 | 0.00 | 95 | 1017.3 |
| 20260506083015 | 32 | 22 | 0.0 | 1.0 | 0.00 | 0.49 | 0.00 | 95 | 1017.4 |
| 20260506082513 | 32 | 22 | 0.0 | 2.0 | 0.00 | 0.49 | 0.00 | 95 | 1017.2 |
| 20260506082013 | 32 | 22 | 1.0 | 2.0 | 0.00 | 0.49 | 0.00 | 95 | 1017.2 |
| 20260506081516 | 32 | 19 | 0.0 | 2.0 | 0.00 | 0.49 | 0.00 | 95 | 1017.3 |
| 20260506081016 | 32 | 18 | 0.0 | 2.0 | 0.00 | 0.49 | 0.00 | 95 | 1017.5 |
| 20260506080516 | 32 | 4 | 0.0 | 2.0 | 0.00 | 0.49 | 0.00 | 95 | 1017.7 |
| 20260506073519 | 32 | 359 | 0.0 | 2.0 | 0.00 | 0.49 | 0.00 | 95 | 1017.2 |
| 20260506073021 | 32 | 359 | 0.0 | 2.0 | 0.00 | 0.49 | 0.00 | 95 | 1017.4 |
| 20260506072519 | 32 | 359 | 0.0 | 2.0 | 0.00 | 0.49 | 0.00 | 95 | 1017.3 |
| 20260506072018 | 32 | 359 | 0.0 | 2.0 | 0.00 | 0.49 | 0.00 | 95 | 1017.4 |
| 20260506071518 | 32 | 359 | 0.0 | 2.0 | 0.00 | 0.49 | 0.00 | 95 | 1017.5 |
| 20260506071019 | 32 | 359 | 0.0 | 2.0 | 0.00 | 0.49 | 0.00 | 95 | 1017.4 |
| 20260506070517 | 32 | 359 | 0.0 | 2.0 | 0.00 | 0.49 | 0.00 | 95 | 1017.5 |
| 20260506062516 | 32 | 359 | 0.0 | 3.0 | 0.00 | 0.49 | 0.00 | 95 | 1017.1 |
| 20260506062016 | 32 | 359 | 0.0 | 3.0 | 0.00 | 0.49 | 0.00 | 95 | 1017.0 |
| 20260506061541 | 32 | 358 | 1.0 | 3.0 | 0.00 | 0.49 | 0.00 | 95 | 1017.0 |
| 20260506061020 | 32 | 356 | 0.0 | 3.0 | 0.00 | 0.49 | 0.00 | 95 | 1017.0 |
| 20260506060523 | 32 | 355 | 1.0 | 2.0 | 0.00 | 0.49 | 0.00 | 95 | 1017.1 |
| 20260506051005 | 32 | 358 | 1.0 | 3.0 | 0.00 | 0.49 | 0.49 | 95 | 1016.7 |
| 20260506050506 | 32 | 358 | 0.0 | 3.0 | 0.00 | 0.49 | 0.49 | 95 | 1016.5 |
| 20260506045010 | 32 | 358 | 0.0 | 3.0 | 0.00 | 0.50 | 0.49 | 95 | 1016.6 |
| 20260506044510 | 32 | 358 | 0.0 | 3.0 | 0.00 | 0.50 | 0.49 | 95 | 1016.6 |
| 20260506044010 | 32 | 358 | 0.0 | 3.0 | 0.00 | 0.50 | 0.49 | 95 | 1016.6 |
| 20260506043508 | 32 | 358 | 1.0 | 2.0 | 0.00 | 0.50 | 0.49 | 95 | 1016.7 |
| 20260506043026 | 32 | 358 | 0.0 | 2.0 | 0.00 | 0.50 | 0.49 | 95 | 1016.7 |
| 20260506042512 | 32 | 359 | 1.0 | 2.0 | 0.00 | 0.50 | 0.49 | 95 | 1016.5 |
| 20260506042012 | 32 | 359 | 0.0 | 2.0 | 0.00 | 0.50 | 0.49 | 95 | 1016.4 |
| 20260506041511 | 32 | 359 | 0.0 | 2.0 | 0.00 | 0.50 | 0.49 | 95 | 1016.4 |
| 20260506041011 | 32 | 359 | 0.0 | 2.0 | 0.00 | 0.50 | 0.49 | 95 | 1016.4 |
| 20260506040512 | 32 | 359 | 0.0 | 3.0 | 0.00 | 0.50 | 0.49 | 95 | 1016.5 |
| 20260506040010 | 32 | 358 | 0.0 | 3.0 | 0.00 | 0.50 | 0.49 | 95 | 1016.5 |
| 20260506035511 | 32 | 358 | 1.0 | 2.0 | 0.00 | 0.61 | 0.49 | 95 | 1016.5 |
| 20260506035016 | 32 | 358 | 1.0 | 4.0 | 0.00 | 0.61 | 0.49 | 95 | 1016.5 |
| 20260506034514 | 32 | 358 | 1.0 | 5.0 | 0.00 | 0.61 | 0.49 | 95 | 1016.5 |
| 20260506034014 | 32 | 359 | 2.0 | 5.0 | 0.00 | 0.61 | 0.49 | 95 | 1016.5 |
| 20260506033513 | 32 | 358 | 2.0 | 4.0 | 0.00 | 0.61 | 0.49 | 95 | 1016.4 |
| 20260506033016 | 32 | 354 | 2.0 | 4.0 | 0.00 | 0.61 | 0.49 | 95 | 1016.2 |
| 20260506032511 | 32 | 354 | 2.0 | 4.0 | 0.00 | 0.61 | 0.49 | 95 | 1016.2 |
| 20260506032012 | 32 | 354 | 1.0 | 4.0 | 0.00 | 0.61 | 0.49 | 95 | 1016.2 |
| 20260506031520 | 32 | 353 | 1.0 | 3.0 | 0.00 | 0.61 | 0.49 | 95 | 1016.1 |
| 20260506031020 | 32 | 351 | 1.0 | 3.0 | 0.00 | 0.61 | 0.49 | 95 | 1016.1 |
| 20260506030514 | 32 | 351 | 0.0 | 3.0 | 0.00 | 0.61 | 0.49 | 95 | 1016.0 |
| 20260506030018 | 32 | 349 | 1.0 | 3.0 | 0.00 | 0.61 | 0.49 | 95 | 1015.8 |
| 20260506025613 | 32 | 349 | 1.0 | 3.0 | 0.00 | 0.61 | 0.49 | 95 | 1015.7 |
| 20260506025013 | 32 | 345 | 1.0 | 3.0 | 0.00 | 0.61 | 0.49 | 95 | 1015.6 |
| 20260506024531 | 32 | 343 | 1.0 | 3.0 | 0.00 | 0.61 | 0.49 | 95 | 1015.5 |
| 20260506024014 | 32 | 347 | 1.0 | 3.0 | 0.00 | 0.61 | 0.49 | 95 | 1015.4 |
| 20260506023511 | 32 | 345 | 1.0 | 4.0 | 0.00 | 0.61 | 0.49 | 95 | 1015.2 |
| 20260506023016 | 32 | 347 | 1.0 | 4.0 | 0.01 | 0.61 | 0.49 | 95 | 1015.2 |
| 20260506022518 | 32 | 349 | 1.0 | 4.0 | 0.01 | 0.61 | 0.49 | 95 | 1015.1 |
| 20260506022016 | 32 | 352 | 1.0 | 3.0 | 0.01 | 0.61 | 0.49 | 94 | 1015.0 |
| 20260506021516 | 32 | 351 | 1.0 | 4.0 | 0.01 | 0.61 | 0.49 | 94 | 1014.9 |
| 20260506021019 | 32 | 349 | 1.0 | 4.0 | 0.01 | 0.61 | 0.49 | 94 | 1014.8 |
| 20260506020514 | 32 | 343 | 1.0 | 4.0 | 0.01 | 0.61 | 0.49 | 94 | 1014.9 |
| 20260506020015 | 32 | 340 | 2.0 | 4.0 | 0.01 | 0.61 | 0.49 | 94 | 1014.8 |
| 20260506015515 | 32 | 336 | 2.0 | 4.0 | 0.02 | 0.61 | 0.49 | 95 | 1014.7 |
| 20260506015016 | 32 | 340 | 2.0 | 4.0 | 0.02 | 0.61 | 0.49 | 94 | 1014.6 |
| 20260506014520 | 32 | 338 | 1.0 | 5.0 | 0.02 | 0.61 | 0.49 | 94 | 1014.5 |
| 20260506014019 | 32 | 336 | 1.0 | 5.0 | 0.03 | 0.61 | 0.49 | 94 | 1014.6 |
| 20260506013516 | 33 | 343 | 2.0 | 4.0 | 0.03 | 0.61 | 0.49 | 94 | 1014.7 |
| 20260506013016 | 33 | 359 | 2.0 | 5.0 | 0.03 | 0.60 | 0.48 | 94 | 1014.5 |
| 20260506012516 | 33 | 359 | 2.0 | 5.0 | 0.03 | 0.60 | 0.48 | 94 | 1014.4 |
| 20260506012018 | 33 | 347 | 1.0 | 5.0 | 0.03 | 0.60 | 0.48 | 94 | 1014.2 |
| 20260506011519 | 33 | 341 | 2.0 | 5.0 | 0.03 | 0.60 | 0.48 | 94 | 1014.3 |
| 20260506011020 | 33 | 359 | 2.0 | 4.0 | 0.03 | 0.60 | 0.48 | 94 | 1014.2 |
| 20260506010519 | 33 | 360 | 2.0 | 5.0 | 0.03 | 0.60 | 0.48 | 94 | 1014.1 |
| 20260506010019 | 33 | 359 | 2.0 | 5.0 | 0.03 | 0.60 | 0.48 | 94 | 1014.1 |
| 20260506005521 | 33 | 359 | 3.0 | 5.0 | 0.02 | 0.59 | 0.47 | 94 | 1014.2 |
| 20260506005018 | 33 | 359 | 2.0 | 4.0 | 0.02 | 0.59 | 0.47 | 94 | 1014.2 |
| 20260506004517 | 33 | 360 | 2.0 | 6.0 | 0.02 | 0.59 | 0.47 | 94 | 1014.2 |
| 20260506004017 | 33 | 359 | 2.0 | 6.0 | 0.01 | 0.57 | 0.46 | 94 | 1014.0 |
| 20260506003517 | 33 | 359 | 2.0 | 6.0 | 0.01 | 0.57 | 0.46 | 94 | 1014.1 |
| 20260506003021 | 33 | 360 | 2.0 | 6.0 | 0.00 | 0.56 | 0.45 | 94 | 1014.2 |
| 20260506002520 | 33 | 360 | 2.0 | 5.0 | 0.00 | 0.56 | 0.45 | 94 | 1014.0 |
| 20260506002020 | 33 | 2 | 1.0 | 4.0 | 0.00 | 0.56 | 0.45 | 94 | 1014.0 |
| 20260506001520 | 33 | 360 | 1.0 | 4.0 | 0.00 | 0.56 | 0.45 | 94 | 1014.0 |
| 20260506001021 | 33 | 360 | 2.0 | 4.0 | 0.00 | 0.56 | 0.45 | 94 | 1013.9 |
| 20260506000522 | 33 | 1 | 1.0 | 3.0 | 0.00 | 0.56 | 0.45 | 94 | 1013.9 |
| 20260506000024 | 33 | 1 | 1.0 | 3.0 | 0.00 | 0.56 | 0.45 | 94 | 1014.0 |
| 20260505235526 | 33 | 1 | 1.0 | 4.0 | 0.01 | 0.56 | 0.45 | 94 | 1014.0 |
| 20260505235023 | 32 | 1 | 2.0 | 4.0 | 0.01 | 0.56 | 0.45 | 94 | 1013.9 |
| 20260505234523 | 32 | 1 | 1.0 | 4.0 | 0.01 | 0.56 | 0.45 | 94 | 1013.6 |
| 20260505234025 | 33 | 2 | 1.0 | 5.0 | 0.02 | 0.56 | 0.45 | 94 | 1013.5 |
| 20260505233522 | 33 | 1 | 1.0 | 5.0 | 0.02 | 0.56 | 0.45 | 94 | 1013.5 |
| 20260505233023 | 33 | 359 | 1.0 | 6.0 | 0.03 | 0.56 | 0.45 | 94 | 1013.6 |
| 20260505232522 | 33 | 360 | 2.0 | 6.0 | 0.03 | 0.56 | 0.45 | 93 | 1013.6 |
| 20260505232029 | 33 | 360 | 2.0 | 5.0 | 0.04 | 0.56 | 0.45 | 93 | 1013.7 |
| 20260505231525 | 33 | 360 | 2.0 | 6.0 | 0.04 | 0.56 | 0.45 | 93 | 1013.7 |
| 20260505231024 | 33 | 359 | 2.0 | 7.0 | 0.04 | 0.56 | 0.45 | 93 | 1013.7 |
| 20260505230522 | 34 | 354 | 3.0 | 10.0 | 0.05 | 0.56 | 0.45 | 93 | 1014.0 |
| 20260505230022 | 34 | 339 | 3.0 | 10.0 | 0.05 | 0.56 | 0.45 | 93 | 1013.9 |
| 20260505225523 | 35 | 1 | 3.0 | 9.0 | 0.04 | 0.56 | 0.44 | 92 | 1013.7 |
| 20260505225020 | 36 | 332 | 4.0 | 8.0 | 0.04 | 0.56 | 0.44 | 93 | 1013.4 |
| 20260505224520 | 36 | 7 | 3.0 | 8.0 | 0.04 | 0.56 | 0.44 | 93 | 1013.2 |
| 20260505224019 | 36 | 5 | 3.0 | 8.0 | 0.03 | 0.55 | 0.43 | 93 | 1013.0 |
| 20260505223524 | 37 | 1 | 2.0 | 8.0 | 0.04 | 0.55 | 0.43 | 93 | 1012.9 |
| 20260505223027 | 37 | 1 | 3.0 | 8.0 | 0.03 | 0.54 | 0.42 | 93 | 1012.8 |
| 20260505222522 | 37 | 360 | 1.0 | 8.0 | 0.03 | 0.54 | 0.42 | 93 | 1013.0 |
| 20260505222022 | 37 | 352 | 3.0 | 7.0 | 0.02 | 0.53 | 0.41 | 93 | 1013.2 |
| 20260505221525 | 37 | 2 | 3.0 | 7.0 | 0.03 | 0.53 | 0.41 | 93 | 1013.0 |
| 20260505221023 | 37 | 3 | 1.0 | 7.0 | 0.03 | 0.53 | 0.41 | 93 | 1012.8 |
| 20260505220521 | 37 | 1 | 3.0 | 7.0 | 0.03 | 0.52 | 0.40 | 93 | 1012.8 |
| 20260505220024 | 37 | 9 | 3.0 | 7.0 | 0.04 | 0.52 | 0.40 | 93 | 1012.8 |
| 20260505215627 | 37 | 12 | 2.0 | 6.0 | 0.04 | 0.52 | 0.40 | 93 | 1012.7 |
| 20260505215024 | 37 | 17 | 3.0 | 7.0 | 0.05 | 0.52 | 0.40 | 93 | 1012.7 |
| 20260505214531 | 37 | 20 | 3.0 | 7.0 | 0.05 | 0.52 | 0.40 | 93 | 1012.7 |
| 20260505214024 | 37 | 8 | 3.0 | 7.0 | 0.06 | 0.52 | 0.40 | 93 | 1012.7 |
| 20260505213523 | 37 | 3 | 3.0 | 7.0 | 0.05 | 0.51 | 0.39 | 93 | 1012.7 |
| 20260505213005 | 37 | 1 | 3.0 | 7.0 | 0.05 | 0.51 | 0.39 | 93 | 1012.9 |
| 20260505212503 | 37 | 4 | 3.0 | 8.0 | 0.06 | 0.51 | 0.39 | 93 | 1012.9 |
| 20260505212003 | 37 | 7 | 3.0 | 8.0 | 0.06 | 0.51 | 0.39 | 92 | 1012.9 |
| 20260505211506 | 37 | 5 | 4.0 | 8.0 | 0.05 | 0.50 | 0.38 | 92 | 1012.8 |
| 20260505211006 | 38 | 1 | 3.0 | 8.0 | 0.06 | 0.50 | 0.38 | 91 | 1012.7 |
| 20260505210508 | 39 | 4 | 3.0 | 8.0 | 0.06 | 0.49 | 0.37 | 92 | 1012.9 |
| 20260505210025 | 39 | 38 | 2.0 | 6.0 | 0.05 | 0.48 | 0.36 | 93 | 1012.8 |
| 20260505205524 | 39 | 41 | 2.0 | 6.0 | 0.05 | 0.48 | 0.36 | 93 | 1012.9 |
| 20260505205025 | 39 | 41 | 2.0 | 6.0 | 0.04 | 0.47 | 0.35 | 93 | 1013.1 |
| 20260505204507 | 39 | 28 | 2.0 | 5.0 | 0.04 | 0.47 | 0.35 | 92 | 1013.0 |
| 20260505204009 | 39 | 26 | 2.0 | 5.0 | 0.03 | 0.46 | 0.34 | 93 | 1013.2 |
| 20260505203508 | 39 | 28 | 1.0 | 7.0 | 0.03 | 0.46 | 0.34 | 93 | 1013.3 |
| 20260505203006 | 39 | 66 | 4.0 | 7.0 | 0.03 | 0.46 | 0.34 | 92 | 1013.1 |
| 20260505202506 | 39 | 32 | 0.0 | 4.0 | 0.02 | 0.45 | 0.33 | 93 | 1013.7 |
| 20260505202006 | 39 | 19 | 1.0 | 5.0 | 0.02 | 0.45 | 0.33 | 92 | 1013.9 |
| 20260505201527 | 38 | 18 | 2.0 | 6.0 | 0.02 | 0.45 | 0.33 | 92 | 1013.9 |
| 20260505201026 | 39 | 15 | 1.0 | 6.0 | 0.01 | 0.44 | 0.32 | 92 | 1013.8 |
| 20260505200526 | 39 | 8 | 2.0 | 5.0 | 0.00 | 0.43 | 0.31 | 93 | 1013.7 |
| 20260505200008 | 39 | 1 | 1.0 | 6.0 | 0.00 | 0.43 | 0.31 | 93 | 1013.6 |
| 20260505195507 | 39 | 1 | 3.0 | 6.0 | 0.00 | 0.43 | 0.31 | 93 | 1013.7 |
| 20260505195007 | 39 | 1 | 3.0 | 6.0 | 0.00 | 0.43 | 0.31 | 93 | 1013.9 |
| 20260505194506 | 39 | 342 | 3.0 | 6.0 | 0.00 | 0.43 | 0.31 | 93 | 1013.9 |
| 20260505194006 | 39 | 1 | 3.0 | 7.0 | 0.00 | 0.43 | 0.31 | 93 | 1013.9 |
| 20260505193508 | 39 | 1 | 2.0 | 7.0 | 0.00 | 0.43 | 0.31 | 93 | 1013.9 |
| 20260505193010 | 40 | 9 | 2.0 | 5.0 | 0.00 | 0.43 | 0.31 | 93 | 1013.6 |
| 20260505192516 | 40 | 6 | 1.0 | 5.0 | 0.01 | 0.43 | 0.31 | 93 | 1013.6 |
| 20260505192009 | 40 | 4 | 3.0 | 5.0 | 0.01 | 0.43 | 0.31 | 94 | 1013.6 |
| 20260505191509 | 40 | 5 | 1.0 | 5.0 | 0.01 | 0.43 | 0.31 | 94 | 1013.5 |
| 20260505191008 | 39 | 5 | 1.0 | 5.0 | 0.01 | 0.43 | 0.31 | 94 | 1013.7 |
| 20260505190508 | 39 | 4 | 0.0 | 6.0 | 0.01 | 0.43 | 0.31 | 94 | 1013.8 |
| 20260505190007 | 39 | 2 | 3.0 | 6.0 | 0.01 | 0.43 | 0.31 | 94 | 1013.8 |
| 20260505185507 | 38 | 1 | 4.0 | 6.0 | 0.01 | 0.43 | 0.31 | 94 | 1013.9 |
| 20260505185007 | 38 | 17 | 1.0 | 5.0 | 0.01 | 0.43 | 0.31 | 94 | 1014.1 |
| 20260505184511 | 38 | 16 | 1.0 | 4.0 | 0.02 | 0.43 | 0.31 | 94 | 1014.3 |
| 20260505184009 | 38 | 15 | 1.0 | 4.0 | 0.02 | 0.43 | 0.31 | 94 | 1014.3 |
| 20260505183510 | 38 | 17 | 1.0 | 4.0 | 0.02 | 0.43 | 0.31 | 94 | 1014.3 |
| 20260505183009 | 38 | 17 | 2.0 | 4.0 | 0.02 | 0.43 | 0.31 | 93 | 1014.4 |
| 20260505182511 | 39 | 18 | 3.0 | 4.0 | 0.01 | 0.42 | 0.30 | 94 | 1014.4 |
| 20260505182008 | 39 | 20 | 2.0 | 4.0 | 0.01 | 0.42 | 0.30 | 94 | 1014.3 |
| 20260505181507 | 38 | 18 | 1.0 | 4.0 | 0.02 | 0.42 | 0.30 | 94 | 1014.3 |
| 20260505181006 | 38 | 18 | 1.0 | 4.0 | 0.02 | 0.42 | 0.30 | 94 | 1014.4 |
| 20260505180506 | 38 | 19 | 2.0 | 4.0 | 0.02 | 0.42 | 0.30 | 94 | 1014.6 |
| 20260505180014 | 38 | 19 | 1.0 | 5.0 | 0.02 | 0.42 | 0.30 | 94 | 1014.6 |